Starlink 30564

operational
NORAD ID: 58043 Int'l Des: 2023-156 Owner: SPXS Country: US Constellation: starlink
LEOCIRCULAR

About Starlink 30564

Description loading...

Live Position

Loading 3D Globe...

Upcoming Passes

Altitude History

Altitude vs Time

uPlot chart will show altitude changes over time

Two-Line Element Set

1 58043U 23156R 26034.21463035 -.00059168 00000-0 -20047-2 0 9992
2 58043 53.1570 238.6229 0001383 74.7778 285.3376 15.30147165131035
Epoch: Feb 3, 2026 • Age: 28 hours

Current Status

Altitude 479.6 km
Velocity 7.63 km/s
Sub-Earth Point -14.01°S, 51.49°W
Launch Date Oct 9, 2023
Age 2.3 years
Type internet

Technical Details

Classification Payload
Mass 730.00 kg
Dry Mass 700.00 kg
Total Mass 730.00 kg
Length 0.30 m
Diameter 4.10 m
Span 29.00 m
Shape Box + pan
Manufacturer SPXS
Bus Type Starlink V2M
Phase Status In Orbit
Owner/State SPXS/US

Large Constellations

Loading constellations...